Temp
44 44 44 43 43 42 41 40 40 39 39 39 38 38 37 37 37 35 35 35 35 34 34 33 33 32 32 31 30 30 30 30 29 28 29 29 28 28 28 27 27 27
44 43 43 42 41 41 41 41 41 41 39 39 39 39 38 37 36 35 35 35 34 34 33 33 32 32 31 31 30 30 29 29 29 29 28 28 28 27 27 27 27 26
43 42 42 41 42 41 40 40 40 40 40 39 38 37 36 36 35 35 35 34 34 33 33 32 32 32 31 31 30 30 30 29 28 28 28 28 27 27 27 26 26 26
42 42 42 41 42 41 40 39 39 39 38 37 37 36 36 36 35 34 34 34 33 33 32 32 32 31 31 30 30 30 30 29 29 28 28 27 27 27 26 26 26 26
41 41 41 41 40 40 39 38 38 38 38 38 37 36 35 35 34 34 34 34 33 33 32 31 31 31 30 30 30 30 29 29 28 27 27 27 26 27 26 26 26 25
40 41 41 40 40 39 39 39 39 38 38 36 37 36 36 35 35 34 34 33 33 33 32 31 31 31 30 30 30 30 29 28 27 27 27 26 26 26 27 26 26 25
40 40 40 40 39 39 39 39 38 38 38 38 35 35 35 35 34 34 34 34 33 33 32 31 31 30 30 30 30 29 28 28 26 27 27 26 25 25 26 26 25 25
39 39 39 39 39 39 39 39 39 39 38 36 36 36 35 35 34 34 34 34 33 32 32 31 31 31 30 30 30 29 28 28 27 26 26 25 25 24 24 25 25 24
38 38 38 38 39 39 39 40 40 39 38 37 37 35 35 35 35 34 34 33 33 33 32 32 31 31 31 30 30 30 29 28 27 27 27 26 25 25 24 24 24 24
38 38 37 38 38 40 40 40 40 40 38 38 37 36 35 35 35 35 34 33 33 33 33 33 32 31 30 30 31 30 30 28 27 27 27 27 26 26 25 24 24 24
38 38 38 38 38 39 39 40 40 40 39 38 37 36 35 35 35 35 34 33 33 33 33 33 32 32 31 30 31 31 30 29 28 27 27 27 27 26 27 25 25 24
38 38 38 39 39 39 39 40 39 39 38 37 37 37 36 36 35 35 35 34 34 34 34 34 33 33 32 31 31 30 30 29 28 28 28 27 27 26 26 25 25 25
39 39 40 40 40 40 40 39 38 38 37 37 37 37 36 36 36 35 35 35 34 34 34 34 34 33 33 32 31 30 30 29 28 27 27 27 27 26 25 25 25 25
39 40 40 41 41 41 39 39 39 38 38 38 37 37 36 36 35 35 35 35 35 35 35 34 34 33 32 32 31 30 30 29 28 28 27 27 26 25 25 24 24 24
40 40 40 40 39 39 38 38 38 38 37 37 36 36 36 36 35 35 34 34 35 35 35 34 33 32 32 31 31 30 30 29 28 28 27 26 25 24 24 24 23 23
39 39 39 39 38 38 38 38 37 37 36 35 35 35 35 35 34 34 35 34 34 34 34 33 33 33 33 34 33 31 29 29 27 26 27 26 25 23 23 23 22 22
38 38 38 37 38 37 36 36 36 35 34 34 33 33 33 33 33 33 34 34 33 33 32 33 33 33 34 35 35 35 31 28 27 26 26 26 25 23 22 22 22 22
36 36 36 36 36 35 35 34 34 33 33 32 32 31 31 31 32 33 33 33 33 33 32 32 32 33 35 36 36 36 33 29 28 27 26 26 25 24 23 22 22 20
34 33 33 34 34 34 33 32 31 32 31 30 30 31 31 30 32 31 32 33 33 32 32 32 31 34 35 36 36 36 35 32 28 27 26 25 25 25 24 22 21 20
32 32 32 33 33 32 31 31 30 31 32 31 31 30 30 30 30 30 31 31 32 32 32 32 31 34 36 36 36 36 36 33 27 26 26 25 25 23 23 22 21 20
31 31 30 31 31 30 29 29 30 30 30 30 30 30 30 30 30 30 30 30 31 31 31 31 31 34 35 36 36 36 36 33 27 26 26 25 24 23 23 22 22 22
30 29 29 29 29 28 27 29 29 29 30 30 30 30 30 31 30 30 30 30 30 30 30 29 30 34 35 36 36 36 36 30 26 25 24 24 23 23 23 23 23 22
30 29 28 28 27 26 27 27 28 28 29 29 28 29 29 29 29 29 30 30 29 29 29 29 28 32 35 35 36 37 35 27 25 24 23 23 22 23 23 23 23 23
28 27 27 28 26 25 25 27 26 27 27 27 27 27 27 28 28 28 29 29 29 28 29 28 27 30 34 35 36 36 33 25 24 23 22 21 20 21 22 23 23 25
27 26 26 26 25 26 24 24 24 25 25 24 25 26 27 27 27 27 26 27 27 27 29 28 26 29 34 35 36 37 32 24 24 23 21 20 20 20 22 22 23 24
28 26 25 25 25 25 24 23 23 21 21 23 23 24 24 24 25 25 25 25 26 26 26 28 26 27 31 35 36 37 33 24 24 23 20 20 20 19 19 20 22 23
MSLP
1008.09 1008.25 1008.33 1008.65 1008.73 1008.89 1009.33 1009.61 1009.97 1010.33 1010.77 1011.09 1011.25 1011.45 1011.73 1012.05 1012.89 1013.37 1013.69 1014.21 1014.49 1014.85 1015.25 1015.69 1016.21 1016.73 1017.13 1017.61 1018.05 1018.53 1018.89 1019.17 1019.45 1019.69 1019.81 1019.97 1020.17 1020.41 1020.65 1020.85 1021.05 1021.13
1007.53 1007.97 1008.33 1008.69 1008.93 1009.09 1009.25 1009.37 1009.49 1009.65 1010.01 1010.29 1010.57 1011.01 1011.53 1012.13 1012.57 1013.09 1013.45 1013.81 1014.33 1014.61 1015.05 1015.53 1015.89 1016.25 1016.69 1017.13 1017.65 1018.09 1018.61 1018.97 1019.25 1019.61 1019.73 1019.93 1020.17 1020.49 1020.61 1020.81 1020.97 1021.25
1007.25 1007.61 1007.89 1008.17 1008.49 1008.85 1009.13 1009.37 1009.53 1009.65 1009.77 1009.97 1010.37 1010.77 1011.25 1011.85 1012.45 1012.93 1013.37 1013.69 1014.05 1014.49 1014.93 1015.33 1015.73 1016.09 1016.41 1016.77 1017.25 1017.65 1018.09 1018.57 1018.97 1019.37 1019.57 1019.77 1020.13 1020.37 1020.57 1020.85 1021.05 1021.09
1007.13 1007.21 1007.45 1007.77 1008.09 1008.41 1008.85 1009.25 1009.41 1009.53 1009.69 1009.93 1010.01 1010.41 1010.85 1011.33 1011.85 1012.45 1012.93 1013.41 1013.85 1014.29 1014.73 1015.13 1015.41 1015.81 1016.17 1016.53 1016.93 1017.33 1017.69 1018.17 1018.53 1019.13 1019.41 1019.81 1020.09 1020.25 1020.53 1020.77 1020.97 1021.21
1007.01 1007.09 1007.21 1007.41 1007.69 1008.05 1008.45 1008.73 1008.89 1009.05 1009.17 1009.21 1009.73 1010.05 1010.37 1010.89 1011.45 1011.93 1012.37 1012.81 1013.21 1013.73 1014.29 1014.73 1015.17 1015.53 1015.93 1016.33 1016.61 1016.97 1017.49 1017.93 1018.41 1018.85 1019.17 1019.49 1019.89 1020.05 1020.37 1020.61 1020.85 1021.09
1006.77 1006.85 1006.97 1007.13 1007.41 1007.81 1008.09 1008.21 1008.41 1008.77 1009.05 1009.33 1009.21 1009.65 1009.93 1010.29 1010.65 1011.09 1011.61 1012.13 1012.69 1013.17 1013.73 1014.25 1014.69 1015.13 1015.53 1015.93 1016.37 1016.57 1017.01 1017.53 1018.05 1018.49 1018.85 1019.13 1019.61 1019.93 1020.17 1020.45 1020.73 1021.01
1006.49 1006.73 1006.81 1007.05 1007.25 1007.21 1007.33 1007.61 1008.05 1008.49 1008.73 1008.85 1009.41 1009.53 1009.73 1010.09 1010.41 1010.73 1011.17 1011.61 1012.13 1012.57 1013.01 1013.45 1013.93 1014.45 1014.93 1015.41 1015.85 1016.21 1016.69 1017.05 1017.65 1018.05 1018.33 1018.85 1019.29 1019.69 1019.97 1020.25 1020.53 1020.77
1007.01 1007.01 1007.05 1007.21 1007.17 1007.21 1007.13 1007.09 1007.21 1007.41 1007.77 1008.45 1008.57 1008.93 1009.33 1009.57 1009.93 1010.37 1010.73 1011.13 1011.57 1012.01 1012.49 1012.85 1013.21 1013.57 1014.01 1014.45 1014.93 1015.49 1016.09 1016.57 1017.05 1017.45 1017.85 1018.33 1018.81 1019.13 1019.53 1019.89 1020.17 1020.45
1008.21 1007.97 1007.61 1007.25 1007.17 1007.13 1006.93 1006.65 1006.65 1006.93 1007.33 1007.53 1007.77 1008.21 1008.61 1008.89 1009.29 1009.73 1010.13 1010.57 1010.97 1011.37 1011.81 1012.25 1012.49 1012.85 1013.29 1013.65 1014.05 1014.41 1014.97 1015.61 1016.13 1016.61 1017.01 1017.49 1018.01 1018.33 1018.85 1019.33 1019.81 1020.09
1006.57 1007.01 1007.77 1008.13 1008.05 1007.17 1006.61 1006.29 1006.37 1006.57 1006.85 1007.09 1007.25 1007.57 1007.85 1008.13 1008.45 1008.85 1009.49 1009.85 1010.21 1010.69 1011.01 1011.33 1011.89 1012.21 1012.61 1012.93 1013.21 1013.61 1014.17 1014.73 1015.41 1015.93 1016.25 1016.65 1017.05 1017.57 1018.21 1018.69 1018.93 1019.49
1006.17 1006.33 1006.45 1006.61 1006.89 1007.13 1007.17 1006.77 1006.41 1006.17 1006.49 1006.57 1006.93 1007.25 1007.37 1007.61 1007.81 1008.13 1008.53 1008.97 1009.33 1009.61 1010.05 1010.49 1010.89 1011.41 1011.93 1012.41 1012.77 1013.09 1013.45 1014.05 1014.69 1015.21 1015.61 1016.01 1016.41 1016.85 1017.33 1017.81 1018.25 1018.45
1006.01 1006.13 1005.97 1005.69 1005.77 1005.85 1005.85 1006.21 1006.69 1006.85 1006.69 1006.77 1006.73 1006.65 1007.01 1007.21 1007.37 1007.45 1007.45 1007.77 1008.17 1008.65 1009.13 1009.61 1010.25 1010.81 1011.13 1011.41 1011.93 1012.45 1012.97 1013.45 1013.97 1014.49 1014.93 1015.41 1015.89 1016.33 1016.73 1017.17 1017.41 1017.81
1005.81 1005.73 1005.61 1005.49 1005.33 1005.09 1005.17 1005.53 1005.57 1005.77 1006.33 1006.73 1006.97 1007.05 1007.01 1006.93 1006.97 1007.33 1007.41 1007.29 1007.37 1007.81 1008.29 1008.77 1009.33 1009.89 1010.45 1010.89 1011.29 1011.73 1012.21 1012.65 1013.21 1013.69 1014.13 1014.65 1015.13 1015.61 1016.09 1016.57 1016.93 1017.33
1005.49 1005.25 1005.05 1004.89 1004.73 1004.73 1004.77 1004.77 1004.89 1005.09 1005.13 1005.45 1006.13 1006.37 1006.45 1006.61 1006.61 1006.53 1006.77 1007.29 1007.37 1007.45 1007.65 1008.13 1008.73 1009.37 1009.89 1010.29 1010.53 1010.81 1011.33 1011.77 1012.09 1012.61 1013.21 1013.85 1014.45 1015.09 1015.61 1016.05 1016.49 1016.89
1005.09 1004.85 1004.69 1004.57 1004.49 1004.45 1004.29 1004.25 1004.21 1004.33 1004.69 1005.13 1005.49 1005.61 1005.77 1005.97 1006.37 1006.77 1006.93 1006.93 1007.13 1007.37 1007.65 1007.85 1008.05 1008.29 1008.73 1009.29 1009.81 1010.25 1010.57 1011.01 1011.49 1011.93 1012.41 1013.05 1013.81 1014.49 1015.13 1015.69 1016.25 1016.73
1005.05 1004.73 1004.49 1004.29 1004.17 1004.01 1003.93 1003.85 1003.85 1003.85 1004.05 1004.33 1004.65 1004.97 1005.37 1005.73 1006.09 1006.41 1006.61 1006.65 1006.77 1006.93 1007.17 1007.45 1007.49 1007.53 1007.81 1008.25 1008.69 1009.13 1009.77 1010.45 1011.17 1011.69 1012.09 1012.49 1013.05 1013.89 1014.69 1015.25 1015.77 1016.29
1005.01 1004.73 1004.49 1004.25 1003.97 1003.81 1003.65 1003.61 1003.57 1003.57 1003.61 1003.69 1004.05 1004.49 1004.77 1005.13 1005.53 1005.81 1005.93 1006.17 1006.53 1006.69 1006.81 1006.77 1006.81 1007.05 1007.49 1007.89 1008.25 1008.73 1009.33 1009.93 1010.57 1011.21 1011.69 1012.13 1012.57 1013.09 1013.81 1014.61 1015.29 1015.81
1005.37 1005.05 1004.69 1004.33 1004.05 1003.77 1003.49 1003.37 1003.33 1003.37 1003.37 1003.41 1003.69 1003.97 1004.25 1004.73 1004.97 1004.89 1005.29 1005.85 1006.21 1006.45 1006.49 1006.45 1006.53 1006.77 1007.25 1007.73 1008.09 1008.45 1008.89 1009.37 1010.01 1010.65 1011.17 1011.57 1011.97 1012.53 1013.17 1013.85 1014.53 1015.25
1005.93 1005.49 1005.01 1004.61 1004.25 1003.85 1003.57 1003.41 1003.33 1003.25 1003.21 1003.33 1003.37 1003.49 1003.97 1004.09 1004.13 1004.77 1004.97 1005.21 1005.73 1006.01 1006.13 1006.33 1006.57 1006.77 1007.01 1007.21 1007.53 1007.85 1008.37 1009.05 1009.69 1010.09 1010.53 1010.89 1011.33 1011.93 1012.57 1013.29 1014.09 1014.89
1006.21 1005.81 1005.21 1004.69 1004.37 1004.13 1003.85 1003.53 1003.33 1003.13 1003.05 1003.09 1003.17 1003.45 1003.53 1003.69 1004.01 1004.13 1004.45 1004.77 1004.97 1005.49 1005.89 1006.13 1006.33 1006.61 1006.85 1007.17 1007.49 1007.77 1008.09 1008.61 1009.33 1009.69 1010.05 1010.37 1010.77 1011.37 1012.13 1012.93 1013.57 1014.13
1006.29 1005.89 1005.37 1004.81 1004.37 1004.13 1003.93 1003.57 1003.29 1003.13 1003.13 1003.13 1003.13 1003.05 1003.09 1003.17 1003.37 1003.69 1003.77 1004.01 1004.33 1004.73 1005.21 1005.57 1005.69 1006.09 1006.49 1006.85 1007.25 1007.53 1007.85 1008.37 1009.17 1009.61 1009.93 1010.33 1010.93 1011.41 1011.89 1012.45 1013.09 1013.65
1006.41 1005.93 1005.41 1004.93 1004.49 1004.13 1003.97 1003.69 1003.37 1003.17 1003.01 1003.05 1003.05 1003.01 1003.05 1003.17 1003.29 1003.37 1003.53 1003.69 1003.89 1004.25 1004.45 1004.65 1005.09 1005.49 1005.93 1006.41 1006.89 1007.37 1007.85 1008.45 1009.09 1009.45 1009.81 1010.29 1010.93 1011.57 1012.05 1012.53 1012.93 1013.33
1006.49 1006.01 1005.41 1004.93 1004.61 1004.29 1003.89 1003.65 1003.49 1003.29 1003.17 1003.17 1003.21 1003.09 1003.09 1003.05 1003.05 1003.13 1003.25 1003.41 1003.49 1003.57 1003.69 1004.05 1004.73 1005.09 1005.53 1006.05 1006.53 1007.05 1007.57 1008.33 1008.93 1009.37 1009.73 1010.09 1010.53 1011.17 1011.77 1012.25 1012.61 1012.93
1006.65 1006.29 1005.65 1005.01 1004.69 1004.37 1003.97 1003.69 1003.45 1003.29 1003.17 1003.13 1003.13 1003.05 1003.05 1002.97 1002.97 1003.09 1003.17 1003.25 1003.33 1003.41 1003.33 1003.61 1004.17 1004.69 1005.01 1005.41 1005.85 1006.13 1006.61 1007.73 1008.41 1009.09 1009.65 1010.05 1010.65 1011.05 1011.41 1011.85 1012.21 1012.49
1006.61 1006.21 1005.73 1005.17 1004.77 1004.37 1004.17 1003.85 1003.45 1003.17 1003.09 1003.17 1003.17 1003.09 1003.05 1003.05 1003.13 1003.09 1003.09 1003.17 1003.17 1003.33 1003.49 1003.61 1004.05 1004.49 1004.69 1005.01 1005.29 1005.61 1006.29 1007.29 1007.89 1008.65 1009.45 1010.13 1010.65 1011.21 1011.57 1011.97 1012.29 1012.41
1006.41 1006.13 1005.69 1005.33 1004.73 1004.25 1004.05 1003.73 1003.45 1003.21 1003.05 1003.09 1003.17 1003.17 1003.21 1003.21 1003.29 1003.17 1003.09 1003.13 1003.25 1003.37 1003.41 1003.45 1003.93 1004.37 1004.45 1004.57 1004.85 1005.13 1005.73 1006.77 1007.37 1007.93 1008.61 1009.37 1010.13 1010.69 1011.25 1011.77 1011.97 1012.01
Wind_Speed
11 10 11 10 11 10 11 12 11 12 12 12 13 13 14 13 13 15 14 12 13 13 13 13 12 11 10 10 9 8 7 8 6 6 7 7 6 8 8 7 6 6
13 10 8 7 7 7 8 10 12 13 14 14 12 11 10 10 11 13 13 13 12 12 11 11 11 12 11 10 10 10 8 7 8 5 8 8 7 7 7 8 7 6
11 11 11 11 11 10 9 9 10 10 10 11 9 9 9 9 11 11 11 11 12 11 11 11 11 11 11 10 10 10 9 9 9 7 7 9 7 8 6 7 6 8
11 12 11 11 10 10 9 9 9 9 7 8 10 9 9 10 11 12 12 12 11 11 10 11 11 10 10 10 10 9 9 9 7 7 7 5 6 7 7 7 6 6
12 12 11 10 9 8 8 10 12 11 11 11 9 11 11 11 12 12 13 13 12 12 11 11 10 11 10 10 10 10 9 9 8 8 8 8 7 7 7 7 8 8
10 11 11 11 10 9 10 12 11 11 10 9 12 9 11 12 13 14 14 14 12 12 12 11 12 11 11 11 10 10 10 9 9 10 9 9 8 6 6 7 8 9
11 10 12 10 9 11 12 12 10 10 10 9 6 11 10 12 12 13 14 14 14 14 14 14 14 13 11 11 11 11 10 10 10 11 11 8 8 8 6 8 8 8
10 7 8 8 11 11 13 12 12 13 13 10 13 11 12 13 13 12 13 14 14 14 14 14 14 14 14 13 14 13 12 10 11 12 11 10 10 10 9 8 9 10
7 9 7 9 11 12 13 14 13 12 11 14 13 12 12 13 14 13 14 14 14 14 15 15 16 15 14 14 14 16 16 13 13 14 14 14 13 13 12 10 10 10
10 8 6 9 11 13 14 14 13 11 11 13 13 12 14 13 14 15 14 15 15 15 16 16 15 15 15 15 16 16 15 16 14 14 14 14 14 13 13 13 13 12
11 10 11 13 14 13 15 14 12 12 11 14 12 13 14 13 14 15 16 16 17 18 18 17 17 16 16 15 14 14 15 15 15 14 14 14 14 14 13 14 14 14
12 10 13 15 16 16 16 14 11 10 10 9 11 14 13 14 15 14 16 18 18 17 17 17 16 16 17 17 17 15 14 14 14 14 14 14 14 13 14 13 14 14
11 12 13 14 15 15 13 11 12 12 11 12 10 11 13 13 13 14 13 15 17 16 17 18 17 17 16 16 16 16 16 16 16 16 15 14 13 14 13 13 13 12
11 12 13 14 14 13 12 12 12 12 14 13 12 14 14 15 15 16 14 13 14 15 16 15 15 15 15 16 16 17 17 17 17 17 17 15 14 13 13 13 13 12
11 11 11 12 12 12 12 13 13 12 12 11 12 13 12 13 12 12 12 14 13 14 14 13 15 16 16 16 17 17 16 17 17 17 16 16 15 14 13 12 12 11
12 11 11 11 12 13 13 13 12 12 12 13 14 14 12 11 11 12 13 14 15 14 14 13 14 13 14 22 20 17 17 14 13 14 15 15 15 14 13 12 12 11
12 11 11 12 12 12 11 11 12 10 11 12 12 12 13 12 12 14 15 14 14 14 15 14 13 12 18 23 25 24 17 15 15 14 14 14 14 15 15 14 12 12
12 12 11 12 11 11 11 11 10 10 11 11 11 12 11 10 13 15 13 12 12 14 15 14 13 13 21 23 24 24 20 15 14 13 14 14 14 14 13 14 14 10
13 12 11 11 11 11 10 8 9 10 11 10 12 11 10 13 14 12 13 13 12 14 14 13 11 15 23 26 26 27 26 19 12 13 14 14 14 14 14 10 8 8
13 12 12 11 10 9 8 8 8 11 10 9 8 8 11 12 11 14 12 13 14 13 12 11 12 15 23 24 24 25 25 20 12 14 13 14 14 15 12 10 11 10
14 13 13 12 9 7 7 7 8 8 8 8 8 11 12 13 14 14 14 14 13 13 12 12 12 17 23 25 25 25 26 20 12 11 10 10 9 8 8 8 10 8
13 13 13 12 10 7 6 8 7 7 8 7 7 8 8 8 9 10 12 13 13 13 14 14 11 20 23 25 26 24 25 13 11 11 11 10 11 8 6 7 8 10
13 13 13 12 10 9 8 8 7 7 6 4 6 7 8 10 10 11 11 12 14 14 15 13 10 18 24 25 25 28 22 10 11 10 10 11 11 13 9 9 9 10
12 11 12 11 10 10 10 8 6 4 5 4 7 8 9 9 8 9 9 10 12 13 14 12 11 16 25 26 29 30 20 13 12 11 11 10 9 6 7 7 10 20
12 11 10 10 10 10 9 9 7 6 4 3 6 6 7 6 7 8 8 8 10 11 11 13 10 14 24 26 28 30 20 12 12 11 11 10 11 7 6 7 10 14
11 11 11 10 11 10 8 8 6 4 5 5 5 5 5 5 6 7 8 8 7 9 10 11 11 11 18 27 29 31 25 14 12 13 13 13 11 12 11 7 8 11
Wind_Direction
206 206 206 201 202 194 184 186 187 185 190 189 192 195 193 193 178 186 189 184 188 187 183 182 178 178 178 175 175 173 180 186 179 174 176 166 166 166 168 165 166 165
206 205 209 207 209 203 198 195 190 189 190 192 196 191 190 179 184 182 186 187 185 189 182 180 182 179 175 174 173 173 176 176 180 174 171 174 172 170 171 168 164 153
201 203 204 203 204 203 197 197 195 199 196 197 187 183 179 174 175 184 185 185 185 185 182 181 179 181 177 174 172 176 177 176 180 175 173 179 166 174 170 163 162 168
212 208 206 207 202 201 194 192 202 200 192 184 192 177 171 178 175 178 182 183 183 184 182 180 182 178 177 175 170 179 178 180 175 164 169 163 172 166 166 164 159 159
212 213 211 209 205 196 190 197 201 200 198 194 177 178 176 172 174 178 181 183 182 181 178 181 179 179 175 175 176 175 175 174 166 167 171 175 175 169 167 163 164 167
221 217 214 208 202 195 200 206 205 201 198 192 195 179 182 176 179 180 181 180 182 179 178 178 178 179 177 177 176 182 173 173 172 169 176 176 172 173 164 170 166 171
223 216 218 212 208 203 203 205 202 201 203 200 165 192 178 182 181 182 181 182 180 182 180 180 179 178 179 175 179 179 177 175 168 175 178 175 166 170 170 169 174 174
244 237 229 221 219 213 214 210 204 199 195 181 193 188 181 184 183 182 183 181 182 184 183 183 183 182 180 178 179 179 178 176 176 177 178 174 171 177 174 176 175 175
275 268 261 235 224 222 222 216 210 204 191 194 193 187 186 184 183 182 182 183 184 184 184 186 186 185 183 182 184 182 180 181 180 179 180 178 181 182 178 175 175 180
236 231 243 248 249 242 232 222 214 209 199 202 198 187 187 188 183 183 180 185 186 186 188 188 187 187 185 187 186 184 183 183 180 184 186 185 183 180 178 178 181 178
241 226 225 227 229 232 240 239 226 215 204 206 194 196 194 187 190 184 184 184 187 189 189 189 189 186 184 186 189 188 186 181 182 184 186 186 185 184 181 181 182 186
245 236 233 231 228 231 231 228 230 233 226 219 206 203 194 195 194 192 189 189 190 189 189 189 185 187 189 188 187 186 185 184 182 184 186 186 186 185 183 184 185 185
251 243 238 237 235 233 230 222 220 214 211 216 213 212 205 203 199 196 202 196 192 187 189 186 187 189 189 189 188 186 185 184 183 185 186 186 187 185 184 186 187 184
262 251 244 241 239 236 230 225 218 213 213 208 200 208 208 205 202 201 197 197 199 195 192 186 185 187 191 191 190 187 186 189 186 185 184 185 183 183 183 186 186 185
274 263 256 252 247 241 234 227 221 216 212 206 206 211 209 208 205 200 198 198 197 197 194 190 190 191 190 189 189 190 190 190 189 186 183 181 180 182 182 181 184 183
283 274 266 257 249 242 238 231 224 217 208 206 208 209 208 203 199 200 201 201 198 196 193 194 200 198 192 189 187 187 186 186 185 188 185 183 179 177 179 181 180 179
311 290 276 266 256 247 242 235 227 219 212 210 208 202 203 199 195 199 203 201 200 197 197 200 200 199 192 191 190 185 181 182 183 186 186 183 182 179 178 178 178 178
326 311 294 278 266 254 245 235 227 218 215 210 204 202 201 192 200 204 201 197 199 201 203 203 204 192 188 192 191 188 184 183 183 182 183 185 184 182 180 176 176 165
326 318 303 290 275 262 253 238 225 221 218 209 207 202 189 198 204 194 201 199 197 202 206 204 206 195 193 192 192 190 186 180 185 183 183 187 183 183 178 165 138 144
328 321 311 299 288 273 257 240 227 224 220 213 205 191 197 201 197 199 197 196 198 200 204 203 204 198 197 196 194 191 187 180 185 183 185 186 182 162 145 157 163 160
330 325 316 308 299 283 267 250 236 235 222 212 202 200 199 200 197 198 198 196 195 194 196 201 203 194 196 195 194 191 188 179 180 182 183 182 151 144 156 151 161 158
327 322 317 311 305 295 275 261 251 235 225 215 210 213 213 207 209 204 199 198 196 192 197 202 196 191 194 194 192 190 186 177 177 177 178 175 174 159 143 152 153 160
322 319 315 311 306 296 277 265 258 249 242 220 217 217 210 208 208 203 202 199 197 197 198 198 187 191 193 192 193 193 189 175 176 177 178 177 166 174 160 162 165 162
314 311 308 304 302 290 278 273 264 262 244 217 216 216 215 215 206 205 206 203 202 201 199 193 188 190 193 193 195 193 181 171 173 176 178 174 130 136 147 156 166 173
309 306 302 296 289 280 270 265 254 242 241 216 227 227 227 217 208 209 207 203 205 200 191 192 187 189 194 195 194 195 183 164 169 174 172 175 172 156 155 153 171 177
306 304 299 293 286 280 269 256 252 241 226 209 224 221 225 214 214 213 208 207 198 195 196 194 186 189 197 196 196 196 180 165 170 174 179 174 171 171 168 169 174 179